period_start,C,m1,H,J0,J1,J2,J3,J4,J5,JA,JB,JC,JD,JJ,JK,JN,#
2015-08-23 00:04:38,0.01,0.05,0.00,25.86,29.20,32.06,14.33,49.69,1016.17,2031.05,3437.59,3217.61,3505.00,599.97,590.08,6.63,0000 0000 0000 0000 000000
2015-08-23 00:09:39,0.01,0.05,0.00,25.85,29.19,32.04,14.39,49.84,1016.52,2031.09,3437.08,3217.57,3504.98,600.05,590.20,6.68,0000 0000 0000 0000 000000
2015-08-23 00:14:41,0.01,0.05,0.00,25.87,29.19,32.05,14.39,49.67,1016.62,2031.06,3437.01,3217.42,3504.71,600.22,590.47,6.73,0000 0000 0000 0000 000000
2015-08-23 00:19:42,0.01,0.05,0.00,25.87,29.19,32.04,14.39,49.43,1016.81,2031.07,3436.99,3217.22,3504.16,600.02,590.49,6.78,0000 0000 0000 0000 000000
2015-08-23 00:24:43,0.00,0.05,0.00,25.87,29.19,32.01,14.24,49.36,1017.09,2031.06,3436.89,3217.18,3504.03,599.70,590.29,6.83,0000 0000 0000 0000 000000
2015-08-23 00:29:44,0.01,0.05,0.00,25.87,29.19,32.02,14.36,49.52,1017.06,2031.09,3436.43,3217.11,3504.00,600.11,590.83,6.88,0000 0000 0000 0000 000000
2015-08-23 00:34:45,0.01,0.05,0.00,25.87,29.19,32.05,14.34,49.50,1016.95,2031.10,3436.05,3217.10,3504.00,600.13,590.69,6.93,0000 0000 0000 0000 000000
2015-08-23 00:39:46,-0.00,0.05,0.00,25.86,29.19,32.04,14.32,49.59,1016.90,2031.16,3436.00,3217.10,3503.91,599.86,590.37,6.98,0000 0000 0000 0000 000000
2015-08-23 00:44:48,0.02,0.05,0.00,25.85,29.19,32.05,14.38,49.64,1016.81,2031.20,3435.99,3217.05,3503.36,599.98,590.45,7.03,0000 0000 0000 0000 000000
2015-08-23 00:49:49,-0.00,0.05,0.00,25.85,29.19,32.05,14.40,49.61,1016.90,2031.09,3435.66,3217.01,3503.02,600.30,590.70,7.08,0000 0000 0000 0000 000000
2015-08-23 00:54:50,0.01,0.05,0.00,25.85,29.19,32.06,14.41,49.58,1016.65,2031.12,3435.19,3217.00,3503.00,600.39,590.73,7.13,0000 0000 0000 0000 000000
2015-08-23 00:59:51,-0.00,0.05,0.00,25.85,29.20,32.06,14.38,49.72,1016.59,2031.21,3435.03,3217.02,3503.00,600.36,590.76,7.18,0000 0000 0000 0000 000000
2015-08-23 01:04:53,0.01,0.05,0.00,25.85,29.20,32.05,14.44,49.60,1016.54,2031.18,3434.99,3217.00,3502.80,600.49,590.73,7.23,0000 0000 0000 0000 000000
2015-08-23 01:09:54,0.00,0.05,0.00,25.85,29.20,32.05,14.32,49.57,1016.23,2031.15,3434.96,3217.00,3502.18,599.92,590.09,7.28,0000 0000 0000 0000 000000
2015-08-23 01:14:55,0.01,0.05,0.00,25.86,29.20,32.05,14.31,49.66,1015.87,2031.21,3434.47,3217.00,3502.02,599.92,589.96,7.33,0000 0000 0000 0000 000000
2015-08-23 01:19:57,0.02,0.05,0.00,25.87,29.20,32.04,14.31,49.77,1015.68,2031.42,3434.10,3217.00,3502.00,599.66,589.49,7.38,0000 0000 0000 0000 000000
2015-08-23 01:24:58,-0.02,0.05,0.00,25.85,29.20,32.04,14.34,49.72,1015.65,2031.25,3434.00,3217.00,3501.97,600.05,589.76,7.43,0000 0000 0000 0000 000000
2015-08-23 01:30:00,0.00,0.05,0.00,25.85,29.20,32.04,14.32,49.84,1015.69,2031.24,3433.98,3216.99,3501.72,600.02,589.87,7.48,0000 0000 0000 0000 000000
2015-08-23 01:35:01,0.01,0.05,0.00,25.85,29.20,32.05,14.41,49.83,1015.86,2031.11,3433.61,3216.97,3501.10,600.09,589.99,7.53,0000 0000 0000 0000 000000
2015-08-23 01:40:02,0.01,0.05,0.00,25.83,29.20,32.06,14.37,49.72,1015.85,2031.12,3433.10,3216.96,3501.01,600.12,590.11,7.58,0000 0000 0000 0000 000000
2015-08-23 01:45:04,-0.00,0.05,0.00,25.82,29.20,32.05,14.44,49.84,1015.68,2031.14,3433.01,3216.95,3501.00,600.29,590.18,7.63,0000 0000 0000 0000 000000
2015-08-23 01:50:05,0.01,0.05,0.00,25.82,29.20,32.03,14.37,49.74,1015.64,2031.15,3433.00,3216.96,3500.97,600.28,590.05,7.68,0000 0000 0000 0000 000000
2015-08-23 01:55:06,-0.00,0.05,0.00,25.81,29.20,32.06,14.38,49.88,1015.39,2031.14,3432.96,3216.93,3500.85,599.95,589.55,7.73,0000 0000 0000 0000 000000
2015-08-23 02:00:08,0.02,0.05,0.00,25.80,29.20,32.05,14.31,49.72,1015.15,2031.25,3432.74,3216.91,3500.30,600.03,589.68,7.78,0000 0000 0000 0000 000000
2015-08-23 02:05:09,0.00,0.06,0.00,25.81,29.20,32.07,14.36,49.77,1015.32,2031.27,3432.21,3216.85,3500.07,600.12,589.78,7.83,0000 0000 0000 0000 000000
2015-08-23 02:10:10,0.00,0.06,0.00,25.80,29.19,32.07,14.27,49.76,1015.47,2031.18,3432.02,3216.73,3500.00,599.77,589.56,7.88,0000 0000 0000 0000 000000
2015-08-23 02:15:12,0.01,0.06,0.00,25.80,29.19,32.07,14.27,49.71,1015.71,2031.20,3432.00,3216.59,3500.00,599.95,589.87,7.93,0000 0000 0000 0000 000000
2015-08-23 02:20:13,0.01,0.06,0.00,25.80,29.18,32.05,14.37,49.51,1016.13,2031.19,3431.94,3216.27,3499.83,599.93,590.05,7.98,0000 0000 0000 0000 000000
2015-08-23 02:25:14,0.01,0.06,0.00,25.80,29.18,32.05,14.39,49.68,1016.13,2031.34,3431.82,3216.40,3499.56,600.21,590.36,8.03,0000 0000 0000 0000 000000
2015-08-23 02:30:15,0.02,0.06,0.00,25.80,29.18,32.05,14.32,49.73,1015.88,2031.42,3431.29,3216.49,3499.14,599.97,589.93,8.08,0000 0000 0000 0000 000000
2015-08-23 02:35:17,-0.00,0.06,0.00,25.80,29.18,32.04,14.39,49.62,1015.64,2031.38,3431.03,3216.37,3499.02,599.90,589.86,8.13,0000 0000 0000 0000 000000
2015-08-23 02:40:18,0.02,0.06,0.00,25.80,29.18,32.05,14.43,49.60,1015.66,2031.52,3431.00,3216.25,3499.00,600.33,590.25,8.18,0000 0000 0000 0000 000000
2015-08-23 02:45:19,0.00,0.06,0.00,25.80,29.18,32.04,14.42,49.63,1015.75,2031.63,3430.95,3216.24,3498.98,600.26,590.13,8.23,0000 0000 0000 0000 000000
2015-08-23 02:50:20,0.02,0.06,0.00,25.80,29.18,32.05,14.33,49.61,1015.97,2031.64,3430.53,3216.15,3498.67,600.05,590.33,8.28,0000 0000 0000 0000 000000
2015-08-23 02:55:21,0.02,0.06,0.00,25.78,29.18,32.05,14.32,49.49,1016.01,2031.67,3430.03,3216.05,3498.06,600.23,590.25,8.33,0000 0000 0000 0000 000000
2015-08-23 03:00:23,-0.03,0.06,0.00,25.77,29.18,32.05,14.32,49.45,1015.65,2031.44,3430.00,3216.02,3498.00,600.14,590.14,8.38,0000 0000 0000 0000 000000
2015-08-23 03:05:24,0.00,0.06,0.00,25.75,29.18,32.05,14.36,49.52,1015.64,2031.36,3429.87,3216.01,3497.93,600.01,589.97,8.43,0000 0000 0000 0000 000000
2015-08-23 03:10:25,0.04,0.06,0.00,25.75,29.18,32.04,14.40,49.52,1015.48,2031.59,3429.36,3216.01,3497.55,599.98,589.95,8.48,0000 0000 0000 0000 000000
2015-08-23 03:15:27,0.02,0.06,0.00,25.75,29.18,32.04,14.36,49.48,1015.29,2031.64,3429.01,3216.00,3497.04,599.88,589.65,8.53,0000 0000 0000 0000 000000
2015-08-23 03:20:28,-0.00,0.06,0.00,25.75,29.19,32.02,14.26,49.50,1015.15,2031.72,3428.99,3216.00,3497.00,599.50,589.20,8.58,0000 0000 0000 0000 000000
2015-08-23 03:25:29,-0.01,0.06,0.00,25.74,29.19,32.04,14.32,49.63,1015.14,2031.53,3428.70,3216.00,3496.89,600.10,589.86,8.63,0000 0000 0000 0000 000000
2015-08-23 03:30:30,0.02,0.06,0.00,25.72,29.19,32.05,14.28,49.56,1015.15,2031.55,3428.10,3215.99,3496.28,599.59,589.47,8.68,0000 0000 0000 0000 000000
2015-08-23 03:35:32,-0.01,0.06,0.00,25.72,29.19,32.04,14.31,49.48,1015.42,2031.44,3428.00,3215.99,3496.01,600.26,590.23,8.74,0000 0000 0000 0000 000000
2015-08-23 03:40:33,0.03,0.06,0.00,25.72,29.19,32.03,14.38,49.64,1015.36,2031.64,3427.99,3215.98,3496.00,600.15,590.06,8.79,0000 0000 0000 0000 000000
2015-08-23 03:45:34,0.00,0.06,0.00,25.72,29.19,32.05,14.36,49.64,1015.15,2031.64,3427.43,3215.98,3495.84,599.99,589.84,8.84,0000 0000 0000 0000 000000
2015-08-23 03:50:35,0.02,0.07,0.00,25.72,29.19,32.06,14.37,49.72,1015.05,2031.57,3427.01,3215.94,3495.17,599.86,589.53,8.89,0000 0000 0000 0000 000000
2015-08-23 03:55:37,0.01,0.07,0.00,25.72,29.18,32.04,14.32,49.48,1014.85,2031.62,3426.98,3215.91,3495.00,599.99,589.57,8.94,0000 0000 0000 0000 000000
2015-08-23 04:00:38,0.01,0.07,0.00,25.71,29.18,32.04,14.36,49.47,1015.09,2031.55,3426.58,3215.77,3494.98,599.96,589.65,8.99,0000 0000 0000 0000 000000
2015-08-23 04:05:39,0.03,0.07,0.00,25.70,29.18,32.03,14.31,49.45,1014.83,2031.71,3426.07,3215.60,3494.61,599.91,589.33,9.04,0000 0000 0000 0000 000000
2015-08-23 04:10:40,0.00,0.07,0.00,25.70,29.18,32.04,14.38,49.42,1014.72,2031.64,3426.00,3215.25,3494.06,599.94,589.52,9.09,0000 0000 0000 0000 000000
2015-08-23 04:15:42,0.02,0.07,0.00,25.70,29.18,32.04,14.34,49.49,1014.97,2031.82,3425.96,3215.25,3494.00,599.83,589.62,9.14,0000 0000 0000 0000 000000
2015-08-23 04:20:43,0.01,0.07,0.00,25.70,29.17,32.04,14.34,49.58,1014.68,2031.77,3425.34,3215.09,3493.99,600.07,589.63,9.19,0000 0000 0000 0000 000000
2015-08-23 04:25:44,0.01,0.07,0.00,25.69,29.17,32.02,14.38,49.67,1014.66,2031.90,3425.02,3215.14,3493.89,599.95,589.58,9.24,0000 0000 0000 0000 000000
2015-08-23 04:30:45,0.01,0.07,0.00,25.67,29.17,32.01,14.37,49.52,1014.68,2031.94,3425.00,3215.10,3493.36,600.28,589.74,9.29,0000 0000 0000 0000 000000
2015-08-23 04:35:46,0.01,0.07,0.00,25.67,29.17,32.03,14.30,49.57,1014.67,2031.95,3424.85,3215.01,3493.01,599.80,589.37,9.34,0000 0000 0000 0000 000000
2015-08-23 04:40:48,0.01,0.07,0.00,25.66,29.17,32.04,14.37,49.39,1014.54,2031.92,3424.11,3215.00,3492.99,600.14,589.66,9.39,0000 0000 0000 0000 000000
2015-08-23 04:45:49,-0.00,0.07,0.00,25.66,29.17,32.02,14.28,49.33,1014.18,2031.92,3424.00,3215.00,3492.68,599.62,588.95,9.44,0000 0000 0000 0000 000000
2015-08-23 04:50:50,0.01,0.07,0.00,25.66,29.17,32.03,14.31,49.45,1014.18,2031.93,3423.97,3215.00,3492.14,599.83,589.13,9.49,0000 0000 0000 0000 000000
2015-08-23 04:55:51,0.01,0.07,0.00,25.66,29.17,32.01,14.34,49.53,1014.15,2031.96,3423.66,3214.99,3492.00,599.94,589.29,9.54,0000 0000 0000 0000 000000
2015-08-23 05:00:53,0.00,0.07,0.00,25.65,29.17,32.02,14.36,49.58,1014.15,2031.98,3423.12,3214.99,3492.00,599.98,589.32,9.59,0000 0000 0000 0000 000000
2015-08-23 05:05:54,0.00,0.07,0.00,25.65,29.17,32.00,14.32,49.49,1014.18,2031.99,3423.00,3214.98,3491.96,599.92,589.36,9.64,0000 0000 0000 0000 000000
2015-08-23 05:10:55,0.00,0.07,0.00,25.64,29.17,32.01,14.40,49.45,1014.31,2031.97,3422.94,3214.98,3491.55,600.14,589.43,9.69,0000 0000 0000 0000 000000
2015-08-23 05:15:57,0.01,0.08,0.00,25.63,29.17,32.01,14.30,49.48,1014.64,2031.98,3422.39,3214.96,3491.02,599.91,589.63,9.74,0000 0000 0000 0000 000000
2015-08-23 05:20:58,0.00,0.08,0.00,25.62,29.17,32.02,14.38,49.53,1014.62,2031.99,3422.04,3214.94,3491.00,600.05,589.74,9.79,0000 0000 0000 0000 000000
2015-08-23 05:25:59,0.01,0.08,0.00,25.60,29.17,32.01,14.34,49.41,1014.66,2031.97,3422.00,3214.65,3490.96,599.95,589.64,9.84,0000 0000 0000 0000 000000
2015-08-23 05:31:00,0.02,0.08,0.00,25.62,29.16,31.99,14.39,49.52,1014.66,2031.97,3421.83,3214.35,3490.44,600.29,589.96,9.89,0000 0000 0000 0000 000000
2015-08-23 05:36:01,0.01,0.08,0.00,25.60,29.15,32.00,14.33,49.45,1014.63,2031.97,3421.20,3214.21,3490.05,599.63,589.44,9.94,0000 0000 0000 0000 000000
2015-08-23 05:41:02,0.01,0.08,0.00,25.60,29.15,32.01,14.36,49.61,1014.67,2031.97,3421.01,3214.10,3490.00,600.35,590.03,9.99,0000 0000 0000 0000 000000
2015-08-23 05:46:04,0.00,0.08,0.00,25.60,29.15,32.00,14.32,49.46,1014.77,2031.99,3420.94,3214.02,3489.96,599.87,589.57,10.04,0000 0000 0000 0000 000000
2015-08-23 05:51:05,0.02,0.08,0.00,25.60,29.15,32.00,14.41,49.49,1014.83,2031.98,3420.24,3214.00,3489.33,600.36,590.03,10.09,0000 0000 0000 0000 000000
2015-08-23 05:56:07,0.00,0.08,0.00,25.60,29.15,32.00,14.39,49.38,1014.67,2031.98,3420.01,3214.00,3489.03,600.08,589.81,10.14,0000 0000 0000 0000 000000
2015-08-23 06:01:08,0.00,0.08,0.00,25.60,29.15,32.01,14.42,49.66,1014.65,2031.98,3420.00,3214.00,3489.01,600.41,590.19,10.19,0000 0000 0000 0000 000000
2015-08-23 06:06:09,0.00,0.08,0.00,25.61,29.15,31.99,14.38,49.56,1014.66,2031.99,3419.92,3213.98,3488.99,599.87,589.40,10.24,0000 0000 0000 0000 000000
2015-08-23 06:11:10,0.01,0.08,0.00,25.60,29.15,31.98,14.42,49.48,1014.44,2031.98,3419.44,3213.96,3488.87,599.99,589.60,10.29,0000 0000 0000 0000 000000
2015-08-23 06:16:11,0.01,0.08,0.00,25.60,29.15,31.99,14.36,49.42,1014.28,2031.98,3419.01,3213.90,3488.28,599.91,589.30,10.34,0000 0000 0000 0000 000000
2015-08-23 06:21:13,0.00,0.08,0.00,25.62,29.15,31.99,14.30,49.32,1014.21,2031.99,3419.01,3213.93,3488.06,599.98,589.32,10.39,0000 0000 0000 0000 000000
2015-08-23 06:26:14,0.01,0.08,0.00,25.62,29.15,31.98,14.35,49.50,1014.18,2031.98,3418.99,3213.68,3488.01,600.12,589.55,10.44,0000 0000 0000 0000 000000
2015-08-23 06:31:15,-0.00,0.08,0.00,25.61,29.15,31.98,14.32,49.47,1014.19,2031.99,3418.93,3213.66,3488.00,599.77,589.18,10.49,0000 0000 0000 0000 000000
2015-08-23 06:36:16,0.01,0.08,0.00,25.61,29.15,31.98,14.41,49.58,1014.19,2031.99,3418.42,3213.57,3487.97,599.90,589.30,10.54,0000 0000 0000 0000 000000
2015-08-23 06:41:18,0.01,0.08,0.00,25.62,29.15,31.95,14.28,49.46,1014.19,2031.99,3418.05,3213.39,3487.75,599.95,589.43,10.59,0000 0000 0000 0000 000000
2015-08-23 06:46:19,0.01,0.08,0.00,25.61,29.14,31.99,14.31,49.58,1014.19,2031.99,3418.00,3213.26,3487.20,600.03,589.49,10.64,0000 0000 0000 0000 000000
2015-08-23 06:51:20,0.00,0.08,0.00,25.62,29.14,31.99,14.29,49.58,1014.18,2031.99,3417.86,3213.07,3487.00,600.07,589.44,10.69,0000 0000 0000 0000 000000
2015-08-23 06:56:22,0.01,0.08,0.00,25.61,29.13,31.98,14.31,49.55,1014.18,2031.99,3417.26,3213.01,3486.95,599.83,589.24,10.74,0000 0000 0000 0000 000000
2015-08-23 07:01:23,0.01,0.09,0.00,25.60,29.13,31.99,14.39,49.58,1014.18,2031.98,3417.00,3213.00,3486.41,599.89,589.34,10.79,0000 0000 0000 0000 000000
2015-08-23 07:06:24,0.00,0.09,0.00,25.60,29.13,32.00,14.34,49.50,1014.19,2031.99,3416.99,3213.00,3486.05,600.10,589.54,10.84,0000 0000 0000 0000 000000
2015-08-23 07:11:25,0.00,0.09,0.00,25.60,29.13,31.98,14.38,49.59,1014.17,2031.99,3416.90,3212.99,3486.00,600.15,589.48,10.89,0000 0000 0000 0000 000000
2015-08-23 07:16:27,0.01,0.09,0.00,25.60,29.12,31.97,14.29,49.49,1014.04,2031.99,3416.18,3212.97,3485.99,600.08,589.42,10.94,0000 0000 0000 0000 000000
2015-08-23 07:21:28,0.00,0.09,0.00,25.59,29.12,31.99,14.34,49.61,1013.70,2031.99,3416.02,3212.99,3485.98,600.01,589.20,11.00,0000 0000 0000 0000 000000
2015-08-23 07:26:30,0.00,0.09,0.00,25.59,29.12,31.98,14.28,49.50,1013.70,2031.99,3416.00,3212.98,3485.89,599.88,588.97,11.05,0000 0000 0000 0000 000000
2015-08-23 07:31:31,0.01,0.09,0.00,25.58,29.12,31.97,14.44,49.58,1013.69,2031.99,3415.97,3212.91,3485.19,600.11,589.26,11.10,0000 0000 0000 0000 000000
2015-08-23 07:36:32,0.00,0.09,0.00,25.59,29.12,31.97,14.38,49.63,1013.69,2031.99,3415.90,3212.95,3485.05,600.14,589.35,11.15,0000 0000 0000 0000 000000
2015-08-23 07:41:33,0.02,0.09,0.00,25.58,29.12,31.96,14.25,49.57,1013.70,2031.99,3415.23,3212.71,3485.00,599.78,589.05,11.20,0000 0000 0000 0000 000000
2015-08-23 07:46:34,0.00,0.09,0.00,25.57,29.12,31.95,14.38,49.73,1013.70,2031.99,3415.03,3212.63,3485.00,600.17,589.30,11.25,0000 0000 0000 0000 000000
2015-08-23 07:51:35,0.01,0.09,0.00,25.57,29.12,31.96,14.30,49.48,1013.51,2031.99,3415.00,3212.47,3484.98,599.89,588.96,11.30,0000 0000 0000 0000 000000
2015-08-23 07:56:37,0.01,0.09,0.00,25.57,29.12,31.94,14.37,49.67,1013.19,2031.99,3414.97,3212.16,3484.68,600.25,589.14,11.35,0000 0000 0000 0000 000000
2015-08-23 08:01:38,0.01,0.09,0.00,25.57,29.12,31.97,14.40,49.65,1013.25,2031.99,3414.58,3212.07,3484.14,599.93,588.87,11.40,0000 0000 0000 0000 000000
2015-08-23 08:06:39,0.00,0.09,0.00,25.57,29.12,31.96,14.35,49.45,1013.58,2031.99,3414.07,3212.01,3484.01,599.97,589.02,11.45,0000 0000 0000 0000 000000
2015-08-23 08:11:40,0.00,0.09,0.00,25.57,29.12,31.95,14.31,49.52,1013.43,2031.99,3414.00,3212.01,3484.00,599.91,588.89,11.50,0000 0000 0000 0000 000000
2015-08-23 08:16:42,0.00,0.09,0.00,25.57,29.12,31.95,14.29,49.56,1013.34,2031.99,3414.00,3212.01,3483.99,599.95,589.07,11.55,0000 0000 0000 0000 000000
2015-08-23 08:21:43,0.00,0.09,0.00,25.57,29.12,31.97,14.37,49.50,1013.20,2031.99,3413.95,3212.00,3483.95,600.07,588.98,11.60,0000 0000 0000 0000 000000
2015-08-23 08:26:44,0.01,0.09,0.00,25.57,29.12,31.95,14.36,49.31,1013.19,2031.99,3413.58,3212.01,3483.69,600.15,589.06,11.65,0000 0000 0000 0000 000000
2015-08-23 08:31:45,0.01,0.09,0.00,25.57,29.12,31.95,14.32,49.51,1013.12,2031.99,3413.06,3212.00,3483.08,600.17,589.02,11.70,0000 0000 0000 0000 000000
2015-08-23 08:36:47,0.00,0.09,0.00,25.57,29.12,31.96,14.38,49.52,1012.90,2031.99,3413.00,3211.99,3483.01,599.85,588.58,11.75,0000 0000 0000 0000 000000
2015-08-23 08:41:48,0.00,0.09,0.00,25.58,29.12,31.95,14.37,49.63,1012.75,2031.99,3412.98,3211.98,3483.00,600.12,588.82,11.80,0000 0000 0000 0000 000000
2015-08-23 08:46:49,0.00,0.09,0.00,25.57,29.12,31.96,14.40,49.60,1012.75,2031.99,3412.97,3211.99,3482.99,600.34,588.81,11.85,0000 0000 0000 0000 000000
2015-08-23 08:51:50,0.01,0.09,0.00,25.57,29.12,31.95,14.27,49.49,1012.73,2031.99,3412.46,3211.98,3482.93,599.79,588.37,11.90,0000 0000 0000 0000 000000
2015-08-23 08:56:51,0.01,0.09,0.00,25.58,29.12,31.94,14.35,49.52,1012.69,2031.99,3412.02,3211.92,3482.37,599.95,588.53,11.95,0000 0000 0000 0000 000000
2015-08-23 09:01:53,0.01,0.09,0.00,25.59,29.12,31.95,14.30,49.45,1012.70,2031.99,3412.00,3211.50,3482.02,599.90,588.54,12.00,0000 0000 0000 0000 000000
2015-08-23 09:06:54,-0.00,0.09,0.00,25.60,29.12,31.96,14.30,49.58,1012.75,2031.99,3411.98,3211.40,3482.00,599.99,588.59,12.05,0000 0000 0000 0000 000000
2015-08-23 09:11:55,0.02,0.10,0.00,25.60,29.12,31.94,14.29,49.45,1013.01,2031.99,3411.57,3211.18,3481.99,599.87,588.63,12.10,0000 0000 0000 0000 000000
2015-08-23 09:16:57,0.01,0.10,0.00,25.60,29.12,31.95,14.27,49.65,1013.00,2031.99,3411.03,3211.03,3481.90,599.84,588.58,12.15,0000 0000 0000 0000 000000
2015-08-23 09:21:58,0.00,0.10,0.00,25.60,29.12,31.95,14.32,49.62,1012.72,2031.99,3411.00,3211.02,3481.49,599.98,588.60,12.20,0000 0000 0000 0000 000000
2015-08-23 09:26:59,0.01,0.10,0.00,25.58,29.12,31.96,14.34,49.75,1012.65,2031.99,3410.99,3211.02,3481.27,599.95,588.33,12.25,0000 0000 0000 0000 000000
2015-08-23 09:32:00,0.00,0.10,0.00,25.58,29.12,31.93,14.43,49.79,1012.23,2031.99,3410.93,3211.00,3481.01,600.35,588.51,12.30,0000 0000 0000 0000 000000
2015-08-23 09:37:01,0.00,0.10,0.00,25.58,29.12,31.95,14.36,49.93,1012.22,2031.99,3410.62,3211.00,3481.00,600.29,588.77,12.35,0000 0000 0000 0000 000000
2015-08-23 09:42:02,0.01,0.10,0.00,25.57,29.12,31.96,14.35,49.74,1012.22,2031.99,3410.07,3211.00,3480.99,599.90,588.30,12.40,0000 0000 0000 0000 000000
2015-08-23 09:47:03,0.00,0.10,0.00,25.57,29.11,31.95,14.30,49.51,1012.55,2032.00,3409.98,3210.99,3480.95,599.95,588.62,12.45,0000 0000 0000 0000 000000
2015-08-23 09:52:05,0.01,0.10,0.00,25.57,29.10,31.95,14.36,49.73,1012.61,2032.00,3409.94,3210.97,3480.53,600.01,588.63,12.50,0000 0000 0000 0000 000000
2015-08-23 09:57:06,0.01,0.10,0.00,25.57,29.10,31.96,14.37,49.81,1012.55,2032.00,3409.57,3210.98,3480.14,600.17,588.61,12.55,0000 0000 0000 0000 000000
2015-08-23 10:02:07,0.00,0.10,0.00,25.55,29.10,31.94,14.41,49.76,1012.29,2032.01,3409.26,3210.96,3480.05,600.35,588.69,12.60,0000 0000 0000 0000 000000
2015-08-23 10:07:09,0.01,0.10,0.00,25.55,29.10,31.96,14.32,49.58,1011.87,2032.00,3409.02,3210.72,3480.01,599.94,588.19,12.65,0000 0000 0000 0000 000000
2015-08-23 10:12:10,0.00,0.10,0.00,25.55,29.10,31.95,14.29,49.59,1011.12,2032.01,3409.00,3210.59,3480.00,599.56,587.52,12.70,0000 0000 0000 0000 000000
2015-08-23 10:17:11,0.01,0.10,0.00,25.55,29.10,31.94,14.31,49.54,1010.54,2032.01,3409.00,3210.43,3479.99,600.19,587.62,12.75,0000 0000 0000 0000 000000
2015-08-23 10:22:13,0.00,0.10,0.00,25.54,29.10,31.95,14.35,49.56,1010.74,2032.00,3408.96,3210.20,3479.95,600.06,587.59,12.80,0000 0000 0000 0000 000000
2015-08-23 10:27:14,0.01,0.10,0.00,25.53,29.10,31.94,14.28,49.48,1011.16,2032.00,3408.54,3210.05,3479.69,600.19,587.90,12.85,0000 0000 0000 0000 000000
2015-08-23 10:32:15,0.01,0.10,0.00,25.54,29.10,31.95,14.28,49.60,1011.27,2032.00,3408.12,3210.03,3479.21,600.05,587.86,12.90,0000 0000 0000 0000 000000
2015-08-23 10:37:16,0.00,0.10,0.00,25.55,29.09,31.95,14.33,49.68,1011.25,2032.01,3408.03,3210.02,3479.04,599.89,587.72,12.95,0000 0000 0000 0000 000000
2015-08-23 10:42:18,0.00,0.10,0.00,25.54,29.08,31.93,14.32,49.75,1011.22,2032.03,3408.01,3210.02,3479.00,599.93,587.69,13.00,0000 0000 0000 0000 000000
2015-08-23 10:47:19,0.00,0.10,0.00,25.54,29.08,31.95,14.32,49.58,1011.21,2032.02,3407.98,3210.01,3479.00,600.18,587.99,13.05,0000 0000 0000 0000 000000
2015-08-23 10:52:20,0.01,0.10,0.00,25.54,29.08,31.96,14.27,49.56,1011.21,2032.01,3407.66,3210.00,3478.92,599.89,587.73,13.10,0000 0000 0000 0000 000000
2015-08-23 10:57:21,0.02,0.10,0.00,25.54,29.07,31.93,14.22,49.48,1011.36,2032.02,3407.19,3210.00,3478.58,599.60,587.54,13.15,0000 0000 0000 0000 000000
2015-08-23 11:02:22,0.00,0.10,0.00,25.54,29.07,31.95,14.41,49.48,1011.34,2032.01,3407.00,3209.99,3478.05,600.38,588.37,13.20,0000 0000 0000 0000 000000
2015-08-23 11:07:23,0.00,0.10,0.00,25.55,29.07,31.92,14.35,49.55,1011.06,2032.02,3406.99,3209.97,3478.01,600.06,587.69,13.25,0000 0000 0000 0000 000000
2015-08-23 11:12:25,0.00,0.10,0.00,25.55,29.07,31.92,14.29,49.59,1010.82,2032.01,3406.79,3209.96,3477.99,599.95,587.62,13.30,0000 0000 0000 0000 000000
2015-08-23 11:17:26,0.01,0.10,0.00,25.55,29.07,31.92,14.27,49.58,1010.80,2032.02,3406.11,3209.84,3477.87,599.80,587.37,13.36,0000 0000 0000 0000 000000
2015-08-23 11:22:28,0.01,0.10,0.00,25.55,29.07,31.94,14.28,49.76,1010.90,2032.02,3406.02,3209.81,3477.55,599.84,587.50,13.41,0000 0000 0000 0000 000000
2015-08-23 11:27:29,0.01,0.11,0.00,25.54,29.07,31.93,14.30,49.63,1010.91,2032.03,3405.98,3209.40,3477.03,599.84,587.60,13.46,0000 0000 0000 0000 000000
2015-08-23 11:32:30,0.01,0.11,0.00,25.54,29.07,31.95,14.30,49.64,1011.03,2032.04,3405.76,3209.12,3477.00,599.87,587.61,13.51,0000 0000 0000 0000 000000
2015-08-23 11:37:31,0.01,0.11,0.00,25.52,29.07,31.95,14.29,49.64,1010.77,2032.07,3405.16,3209.08,3476.99,599.67,587.32,13.56,0000 0000 0000 0000 000000
2015-08-23 11:42:32,0.00,0.11,0.00,25.52,29.07,31.91,14.35,49.64,1010.79,2032.06,3405.01,3209.02,3476.89,600.00,587.62,13.61,0000 0000 0000 0000 000000
2015-08-23 11:47:34,0.01,0.11,0.00,25.52,29.07,31.94,14.31,49.47,1010.78,2032.05,3404.98,3209.01,3476.22,600.01,587.59,13.66,0000 0000 0000 0000 000000
2015-08-23 11:52:35,0.00,0.11,0.00,25.52,29.07,31.93,14.26,49.38,1010.76,2032.07,3404.68,3209.00,3476.02,600.15,587.84,13.71,0000 0000 0000 0000 000000
2015-08-23 11:57:37,0.01,0.11,0.00,25.51,29.07,31.93,14.30,49.51,1010.61,2032.08,3404.08,3209.00,3476.00,600.01,587.55,13.76,0000 0000 0000 0000 000000
2015-08-23 12:02:38,-0.00,0.11,0.00,25.52,29.07,31.92,14.29,49.53,1010.31,2032.04,3404.00,3209.00,3475.95,599.80,587.14,13.81,0000 0000 0000 0000 000000
2015-08-23 12:07:39,0.01,0.11,0.00,25.52,29.07,31.92,14.34,49.53,1009.99,2032.10,3403.93,3208.95,3475.56,600.21,587.34,13.86,0000 0000 0000 0000 000000
2015-08-23 12:12:40,0.01,0.11,0.00,25.52,29.07,31.93,14.32,49.64,1009.75,2032.10,3403.52,3208.94,3475.05,600.35,587.32,13.91,0000 0000 0000 0000 000000
2015-08-23 12:17:41,0.01,0.11,0.00,25.52,29.07,31.92,14.32,49.64,1009.43,2032.11,3403.07,3208.83,3475.01,599.93,586.76,13.96,0000 0000 0000 0000 000000
2015-08-23 12:22:43,0.01,0.11,0.00,25.52,29.07,31.93,14.25,49.47,1009.29,2032.10,3403.00,3208.47,3474.98,600.04,586.84,14.01,0000 0000 0000 0000 000000
2015-08-23 12:27:44,0.01,0.11,0.00,25.52,29.07,31.90,14.30,49.56,1009.26,2032.13,3402.96,3208.20,3474.93,600.03,586.77,14.06,0000 0000 0000 0000 000000
2015-08-23 12:32:45,0.02,0.11,0.00,25.51,29.07,31.92,14.28,49.51,1009.15,2032.14,3402.39,3208.06,3474.32,600.32,587.01,14.11,0000 0000 0000 0000 000000
2015-08-23 12:37:47,0.01,0.11,0.00,25.51,29.07,31.91,14.29,49.49,1009.19,2032.20,3402.03,3208.00,3474.02,599.95,586.67,14.16,0000 0000 0000 0000 000000
2015-08-23 12:42:48,0.01,0.11,0.00,25.52,29.07,31.91,14.26,49.61,1009.96,2032.20,3401.99,3208.00,3474.00,599.97,587.17,14.21,0000 0000 0000 0000 000000
2015-08-23 12:47:49,0.01,0.11,0.00,25.52,29.07,31.93,14.28,49.58,1009.86,2032.32,3401.67,3208.00,3473.93,600.29,587.37,14.26,0000 0000 0000 0000 000000
2015-08-23 12:52:50,0.04,0.12,0.00,25.52,29.07,31.92,14.36,49.57,1009.77,2032.41,3401.07,3207.96,3473.30,600.49,587.48,14.31,0000 0000 0000 0000 000000
2015-08-23 12:57:52,0.04,0.12,0.00,25.52,29.07,31.93,14.22,49.64,1009.27,2032.49,3400.45,3207.37,3472.74,599.91,586.64,14.36,0000 0000 0000 0000 000000